Location: Newark
(54.2500°N, 9.1833°E)
Time: 12:11:26
(UTC+00:00)

A-11 Canister half - Pass Details

Date: 13 December 2019
Orbit: 1517 x 1683 km, 47.2° (Epoch: 28 January)

Event Time Altitude Azimuth Distance (km) Brightness Sun altitude
Rises 17:10:07 0° 284° (WNW) 4,866 12.7 -17.6°
Reaches altitude 10° 17:13:51 10° 273° (W) 3,899 12.2 -18.1°
Maximum altitude 17:21:37 27° 222° (SW) 2,824 10.9 -19.2°
Drops below altitude 10° 17:29:29 10° 170° (S) 3,939 11.2 -20.3°
Sets 17:33:18 0° 159° (SSE) 4,925 11.6 -20.9°
